| time (UTC) | temp F | wind direction | speed MPH | gust MPH | rain 1hr in | rain 24hr in | rain mn in | humidity % | barometer mb |
| 20260902201606 | 57 | 0 | 0.0 | 0.0 | 0.11 | 0.26 | 0.26 | 97 | 1007.0 |
| 20260902200112 | 57 | 0 | 0.0 | 1.0 | 0.08 | 0.22 | 0.22 | 97 | 1007.1 |
| 20260902194602 | 57 | 0 | 0.0 | 0.0 | 0.08 | 0.19 | 0.19 | 96 | 1007.3 |
| 20260902193107 | 57 | 0 | 0.0 | 2.0 | 0.09 | 0.18 | 0.18 | 96 | 1007.3 |
| 20260902191559 | 57 | 0 | 0.0 | 3.0 | 0.10 | 0.15 | 0.15 | 95 | 1007.7 |
| 20260902190100 | 57 | 0 | 0.0 | 2.0 | 0.11 | 0.14 | 0.14 | 96 | 1007.9 |
| 20260902184604 | 57 | 0 | 0.0 | 1.0 | 0.09 | 0.11 | 0.11 | 94 | 1008.1 |
| 20260902183108 | 58 | 0 | 0.0 | 5.0 | 0.07 | 0.09 | 0.09 | 94 | 1008.0 |
| 20260902181603 | 59 | 0 | 0.0 | 0.0 | 0.04 | 0.05 | 0.05 | 95 | 1008.1 |
| 20260902180131 | 59 | 0 | 0.0 | 0.0 | 0.03 | 0.03 | 0.03 | 94 | 1007.8 |
| 20260902174558 | 59 | 0 | 0.0 | 0.0 | 0.02 | 0.02 | 0.02 | 93 | 1007.5 |
| 20260902173104 | 59 | 0 | 0.0 | 0.0 | 0.02 | 0.02 | 0.02 | 93 | 1007.6 |
| 20260902171641 | 59 | 0 | 0.0 | 0.0 | 0.01 | 0.01 | 0.01 | 91 | 1007.5 |
| 20260902170105 | 59 | 0 | 0.0 | 1.0 | 0.00 | 0.00 | 0.00 | 86 | 1007.6 |
| 20260902164606 | 59 | 0 | 0.0 | 2.0 | 0.00 | 0.00 | 0.00 | 86 | 1007.3 |
| 20260902163105 | 59 | 0 | 0.0 | 1.0 | 0.00 | 0.00 | 0.00 | 87 | 1007.4 |
| 20260902161559 | 58 | 0 | 0.0 | 0.0 | 0.00 | 0.00 | 0.00 | 89 | 1007.5 |
| 20260902160111 | 58 | 0 | 0.0 | 1.0 | 0.00 | 0.00 | 0.00 | 88 | 1007.7 |
| 20260902154600 | 58 | 0 | 0.0 | 0.0 | 0.00 | 0.00 | 0.00 | 87 | 1007.7 |
| 20260902153057 | 58 | 0 | 0.0 | 1.0 | 0.00 | 0.00 | 0.00 | 87 | 1007.8 |
| 20260902151556 | 58 | 0 | 0.0 | 1.0 | 0.00 | 0.00 | 0.00 | 88 | 1007.9 |
| 20260902144601 | 56 | 0 | 0.0 | 0.0 | 0.00 | 0.00 | 0.00 | 87 | 1008.1 |
| 20260902143107 | 56 | 0 | 0.0 | 0.0 | 0.00 | 0.00 | 0.00 | 87 | 1008.6 |
| 20260902141554 | 56 | 0 | 0.0 | 1.0 | 0.00 | 0.00 | 0.00 | 86 | 1008.7 |
| 20260902134604 | 56 | 0 | 1.0 | 4.0 | 0.00 | 0.00 | 0.00 | 87 | 1009.1 |
| 20260902133058 | 56 | 98 | 0.0 | 3.0 | 0.00 | 0.00 | 0.00 | 87 | 1009.3 |
| 20260902131602 | 57 | 103 | 1.0 | 4.0 | 0.00 | 0.00 | 0.00 | 86 | 1009.3 |
| 20260902130104 | 57 | 105 | 2.0 | 6.0 | 0.00 | 0.00 | 0.00 | 85 | 1009.6 |
| 20260902124603 | 57 | 0 | 1.0 | 7.0 | 0.00 | 0.00 | 0.00 | 86 | 1009.7 |
| 20260902123101 | 56 | 0 | 0.0 | 6.0 | 0.00 | 0.00 | 0.00 | 86 | 1010.0 |
| 20260902121607 | 56 | 0 | 1.0 | 6.0 | 0.00 | 0.00 | 0.00 | 87 | 1010.3 |
| 20260902114559 | 56 | 0 | 0.0 | 2.0 | 0.00 | 0.00 | 0.00 | 89 | 1010.5 |
| 20260902113106 | 56 | 0 | 0.0 | 2.0 | 0.00 | 0.00 | 0.00 | 88 | 1010.4 |
| 20260902111605 | 56 | 113 | 0.0 | 3.0 | 0.00 | 0.00 | 0.00 | 88 | 1010.6 |
| 20260902110116 | 56 | 0 | 0.0 | 3.0 | 0.00 | 0.00 | 0.00 | 87 | 1010.7 |
| 20260902104600 | 56 | 106 | 0.0 | 6.0 | 0.00 | 0.00 | 0.00 | 87 | 1010.7 |
| 20260902103058 | 56 | 113 | 1.0 | 4.0 | 0.00 | 0.00 | 0.00 | 87 | 1010.8 |
| 20260902101601 | 57 | 113 | 0.0 | 2.0 | 0.00 | 0.00 | 0.00 | 87 | 1011.0 |
| 20260902100113 | 57 | 0 | 0.0 | 3.0 | 0.00 | 0.00 | 0.00 | 86 | 1011.2 |
| 20260902094601 | 57 | 106 | 1.0 | 4.0 | 0.00 | 0.00 | 0.00 | 86 | 1011.2 |
| 20260902093058 | 57 | 0 | 1.0 | 4.0 | 0.00 | 0.00 | 0.00 | 86 | 1011.4 |
| 20260902091603 | 57 | 105 | 0.0 | 7.0 | 0.00 | 0.00 | 0.00 | 86 | 1011.4 |
| 20260902090100 | 57 | 0 | 1.0 | 6.0 | 0.00 | 0.00 | 0.00 | 86 | 1011.6 |
| 20260902084610 | 57 | 88 | 0.0 | 7.0 | 0.00 | 0.00 | 0.00 | 86 | 1011.6 |
| 20260902083059 | 57 | 168 | 1.0 | 8.0 | 0.00 | 0.00 | 0.00 | 87 | 1011.6 |
| 20260902081603 | 57 | 92 | 0.0 | 4.0 | 0.00 | 0.00 | 0.00 | 87 | 1011.5 |
| 20260902074606 | 58 | 0 | 1.0 | 6.0 | 0.00 | 0.00 | 0.00 | 86 | 1011.6 |
| 20260902073100 | 58 | 93 | 0.0 | 4.0 | 0.00 | 0.00 | 0.00 | 86 | 1011.7 |
| 20260902071606 | 58 | 118 | 1.0 | 6.0 | 0.00 | 0.00 | 0.00 | 86 | 1011.9 |
| 20260902070114 | 58 | 111 | 1.0 | 7.0 | 0.00 | 0.00 | 0.00 | 86 | 1012.0 |
| 20260902064610 | 58 | 0 | 1.0 | 4.0 | 0.00 | 0.00 | 0.00 | 85 | 1012.3 |
| 20260902063101 | 58 | 109 | 1.0 | 6.0 | 0.00 | 0.00 | 0.00 | 85 | 1012.3 |
| 20260902060111 | 59 | 0 | 0.0 | 0.0 | 0.00 | 0.00 | 0.00 | 84 | 1012.4 |
| 20260902054559 | 59 | 115 | 0.0 | 3.0 | 0.00 | 0.00 | 0.00 | 83 | 1012.5 |
| 20260902053116 | 59 | 108 | 0.0 | 9.0 | 0.00 | 0.00 | 0.00 | 83 | 1012.5 |
| 20260902051601 | 59 | 115 | 0.0 | 3.0 | 0.00 | 0.00 | 0.00 | 83 | 1012.5 |
| 20260902050121 | 59 | 0 | 0.0 | 6.0 | 0.00 | 0.00 | 0.00 | 83 | 1012.3 |
| 20260902044602 | 59 | 169 | 0.0 | 4.0 | 0.00 | 0.00 | 0.00 | 83 | 1012.2 |
| 20260902043105 | 60 | 82 | 0.0 | 4.0 | 0.00 | 0.00 | 0.00 | 84 | 1012.3 |
| 20260902041613 | 60 | 0 | 0.0 | 3.0 | 0.00 | 0.00 | 0.00 | 82 | 1012.2 |
| 20260902040105 | 60 | 0 | 0.0 | 3.0 | 0.00 | 0.00 | 0.00 | 82 | 1012.2 |
| 20260902034604 | 60 | 142 | 1.0 | 9.0 | 0.00 | 0.00 | 0.00 | 80 | 1012.2 |
| 20260902033101 | 61 | 0 | 2.0 | 8.0 | 0.00 | 0.00 | 0.00 | 80 | 1011.9 |
| 20260902031603 | 61 | 0 | 0.0 | 3.0 | 0.00 | 0.00 | 0.00 | 81 | 1011.9 |
| 20260902030106 | 61 | 0 | 0.0 | 3.0 | 0.00 | 0.00 | 0.00 | 78 | 1011.9 |
| 20260902024559 | 61 | 0 | 0.0 | 4.0 | 0.00 | 0.00 | 0.00 | 78 | 1011.9 |
| 20260902023057 | 62 | 168 | 0.0 | 4.0 | 0.00 | 0.00 | 0.00 | 77 | 1011.7 |
| 20260902021554 | 62 | 0 | 0.0 | 4.0 | 0.00 | 0.00 | 0.00 | 77 | 1011.8 |
| 20260902020106 | 62 | 0 | 0.0 | 7.0 | 0.00 | 0.00 | 0.00 | 76 | 1011.8 |
| 20260902014557 | 62 | 0 | 0.0 | 5.0 | 0.00 | 0.00 | 0.00 | 77 | 1011.7 |
| 20260902013059 | 63 | 250 | 0.0 | 1.0 | 0.00 | 0.00 | 0.00 | 77 | 1011.7 |
| 20260902011600 | 63 | 0 | 0.0 | 1.0 | 0.00 | 0.00 | 0.00 | 78 | 1011.6 |
| 20260902010106 | 63 | 0 | 0.0 | 6.0 | 0.00 | 0.00 | 0.00 | 78 | 1011.6 |
| 20260902004601 | 64 | 0 | 0.0 | 1.0 | 0.00 | 0.00 | 0.00 | 79 | 1011.3 |
| 20260902003101 | 64 | 0 | 0.0 | 0.0 | 0.00 | 0.00 | 0.00 | 77 | 1011.3 |
| 20260902001627 | 64 | 0 | 0.0 | 0.0 | 0.00 | 0.00 | 0.00 | 79 | 1011.3 |
| 20260902000100 | 64 | 0 | 0.0 | 1.0 | 0.00 | 0.00 | 0.00 | 80 | 1011.2 |
| 20260901234600 | 64 | 0 | 0.0 | 1.0 | 0.00 | 0.00 | 0.00 | 77 | 1011.5 |
| 20260901233106 | 64 | 0 | 0.0 | 3.0 | 0.00 | 0.00 | 0.00 | 79 | 1011.6 |
| 20260901231605 | 64 | 0 | 0.0 | 3.0 | 0.00 | 0.00 | 0.00 | 77 | 1011.6 |
| 20260901230100 | 64 | 0 | 0.0 | 2.0 | 0.00 | 0.00 | 0.00 | 78 | 1011.6 |
| 20260901223102 | 63 | 0 | 0.0 | 2.0 | 0.00 | 0.00 | 0.00 | 79 | 1011.7 |
| 20260901221604 | 63 | 0 | 0.0 | 1.0 | 0.00 | 0.00 | 0.00 | 81 | 1011.9 |
| 20260901214602 | 63 | 0 | 0.0 | 2.0 | 0.00 | 0.00 | 0.00 | 82 | 1011.9 |
| 20260901213125 | 63 | 0 | 0.0 | 2.0 | 0.00 | 0.00 | 0.00 | 81 | 1011.8 |
| 20260901211602 | 62 | 0 | 0.0 | 3.0 | 0.00 | 0.00 | 0.00 | 83 | 1012.0 |
| 20260901210116 | 62 | 0 | 0.0 | 3.0 | 0.00 | 0.00 | 0.00 | 82 | 1011.9 |
| 20260901204558 | 63 | 0 | 0.0 | 3.0 | 0.00 | 0.00 | 0.00 | 81 | 1011.9 |
| 20260901203106 | 62 | 0 | 0.0 | 1.0 | 0.00 | 0.00 | 0.00 | 84 | 1011.9 |